Погода в Речном

Россия / Омская область     54°40′31″N   73°48′09″E
темп.,
°C
ветер,
м/с
пор.,
м/с
влажн.,
%
обл.,
%
осадки,
мм/ч
давл.,
гПа
погр.,
м
15 апреля, чт
чт1500:00+2зюз3599100 0.0 102978
03:00+3зюз3499100 0.1 102757
06:00+3зюз479945 0.3 1027101
09:00+2зюз48100100 0.0 1026141
12:00+4зюз48100100 0.0 1025171
15:00+6зюз4810099 0.0 1024216
18:00+6з5899100 0.0 1023231
21:00+4зюз4810099 0.0 1023161
16 апреля, пт
пт1600:00+3зюз489944 0.0 1021118
03:00+3зюз498935 0.0 1019126
06:00+3зюз4128558 0.0 1019181
09:00+6зюз51278100 0.0 1018263
12:00+12з696745 0.0 1017483
15:00+11с8982100 0.0 1018674
18:00+6ссв71080100 0.1 1021790
21:00+5св597442 0.0 1023538
17 апреля, сб
сб1700:00+2ссв410845 0.0 1024318
03:000св48885 0.0 1024259
06:00−1всв35865 0.0 1024186
09:00+1св21685 0.0 1024444
12:00+5сз36546 0.0 10231328
15:00+7сз5842100 0.0 10222018
18:00+8ссз594134 0.0 10222036
21:00+5з335799 0.0 102236
18 апреля, вс
вс1800:00+3в1268100 0.0 102214
03:00+3ююз3373100 0.0 102047
06:00+2ююз4975100 0.0 1018177
09:00+5юз61366100 0.0 1015617
12:00+8юз71152100 0.0 10111581
15:00+9з81258100 0.1 10081637
18:00+5зсз71379100 2.3 10081287
21:00−1сз10147476 0.2 1012994
19 апреля, пн
пн1900:00−4сз10146698 0.3 10151444
03:00−5ссз91365100 0.1 10181163
06:00−6ссз8136088 0.1 1021938
09:00−6ссз91053100 0.0 10241052
12:00−3ссз8941100 0.0 10251589
15:00−1ссз7835100 0.0 10262207
18:00−1ссз7835100 0.0 10272013
21:00−3ссз58475 0.0 1029413